TimeEDT,TemperatureF,Dew PointF,Humidity,Sea Level PressureIn,VisibilityMPH,Wind Direction,Wind SpeedMPH,Gust SpeedMPH,PrecipitationIn,Events,Conditions,WindDirDegrees,DateUTC
12:35 AM,50.0,32.9,52,29.95,10.0,South,10.4,17.3,N/A,,Overcast,190,2012-10-09 04:35:00
12:55 AM,50.0,33.1,52,29.94,10.0,South,10.4,17.3,N/A,,Overcast,190,2012-10-09 04:55:00
1:15 AM,50.0,32.9,52,29.93,10.0,South,8.1,16.1,N/A,,Overcast,170,2012-10-09 05:15:00
1:35 AM,50.0,32.7,52,29.92,10.0,South,8.1,-,N/A,,Overcast,170,2012-10-09 05:35:00
1:56 AM,49.8,32.9,52,29.91,10.0,South,10.4,18.4,N/A,,Overcast,170,2012-10-09 05:56:00
2:15 AM,50.0,32.9,52,29.90,10.0,South,11.5,19.6,N/A,,Overcast,190,2012-10-09 06:15:00
2:56 AM,50.2,34.2,54,29.89,10.0,South,12.7,19.6,N/A,,Overcast,170,2012-10-09 06:56:00
3:15 AM,50.0,34.7,56,29.88,10.0,South,11.5,17.3,N/A,,Overcast,180,2012-10-09 07:15:00
3:56 AM,49.5,36.0,60,29.87,10.0,South,13.8,20.7,N/A,Rain,Light Rain,190,2012-10-09 07:56:00
4:15 AM,49.8,35.6,58,29.87,10.0,South,12.7,23.0,N/A,,Overcast,190,2012-10-09 08:15:00
4:35 AM,49.6,35.8,59,29.86,10.0,South,12.7,-,N/A,,Overcast,190,2012-10-09 08:35:00
4:55 AM,49.5,36.0,60,29.85,10.0,South,13.8,17.3,N/A,,Overcast,190,2012-10-09 08:55:00
5:15 AM,49.5,36.3,61,29.85,10.0,South,13.8,19.6,N/A,,Overcast,190,2012-10-09 09:15:00
5:35 AM,49.5,36.5,61,29.85,10.0,South,11.5,19.6,N/A,,Overcast,190,2012-10-09 09:35:00
5:55 AM,49.5,36.7,61,29.85,10.0,South,12.7,20.7,N/A,,Overcast,180,2012-10-09 09:55:00
6:15 AM,49.3,36.9,62,29.85,10.0,South,11.5,16.1,N/A,,Overcast,190,2012-10-09 10:15:00
6:35 AM,49.5,37.2,63,29.84,10.0,South,10.4,18.4,N/A,,Overcast,190,2012-10-09 10:35:00
6:55 AM,49.3,37.6,64,29.84,10.0,South,13.8,18.4,N/A,,Overcast,190,2012-10-09 10:55:00
7:16 AM,49.5,37.8,64,29.84,10.0,South,13.8,21.9,N/A,,Overcast,190,2012-10-09 11:16:00
7:35 AM,49.3,37.8,65,29.83,10.0,South,12.7,18.4,N/A,,Overcast,190,2012-10-09 11:35:00
7:55 AM,49.5,38.3,65,29.83,10.0,South,13.8,19.6,N/A,,Overcast,190,2012-10-09 11:55:00
8:15 AM,49.3,38.5,66,29.83,10.0,South,15.0,20.7,N/A,Rain,Light Rain,180,2012-10-09 12:15:00
8:35 AM,48.7,39.6,71,29.83,10.0,South,11.5,17.3,N/A,Rain,Rain,190,2012-10-09 12:35:00
8:55 AM,48.2,40.1,74,29.83,10.0,South,12.7,16.1,N/A,Rain,Light Rain,180,2012-10-09 12:55:00
9:15 AM,48.2,39.7,73,29.83,10.0,South,10.4,17.3,N/A,Rain,Light Rain,180,2012-10-09 13:15:00
9:36 AM,49.1,39.6,70,29.83,10.0,South,13.8,19.6,N/A,,Overcast,190,2012-10-09 13:36:00
9:55 AM,49.1,39.7,70,29.83,10.0,South,11.5,18.4,N/A,,Overcast,180,2012-10-09 13:55:00
10:15 AM,49.3,39.6,69,29.83,10.0,South,12.7,19.6,N/A,,Overcast,190,2012-10-09 14:15:00
10:36 AM,48.6,40.6,74,29.83,10.0,South,11.5,19.6,N/A,Rain,Light Rain,190,2012-10-09 14:36:00
10:55 AM,48.2,41.0,76,29.83,10.0,South,10.4,18.4,N/A,Rain,Light Rain,190,2012-10-09 14:55:00
11:15 AM,48.7,41.4,76,29.83,10.0,South,12.7,18.4,N/A,,Drizzle,180,2012-10-09 15:15:00
11:36 AM,48.9,41.2,75,29.83,10.0,SSW,10.4,17.3,N/A,,Overcast,200,2012-10-09 15:36:00
11:55 AM,49.6,40.8,72,29.83,10.0,South,13.8,19.6,N/A,,Overcast,180,2012-10-09 15:55:00
12:15 PM,50.0,40.8,71,29.82,10.0,South,11.5,18.4,N/A,,Overcast,190,2012-10-09 16:15:00
12:35 PM,50.2,41.0,71,29.82,10.0,South,12.7,20.7,N/A,,Overcast,190,2012-10-09 16:35:00
12:55 PM,50.5,41.2,70,29.81,10.0,South,13.8,17.3,N/A,,Overcast,190,2012-10-09 16:55:00
1:16 PM,50.9,41.4,70,29.81,10.0,South,11.5,16.1,N/A,,Overcast,190,2012-10-09 17:16:00
1:35 PM,50.0,42.6,76,29.80,10.0,South,9.2,18.4,N/A,,Drizzle,180,2012-10-09 17:35:00
1:55 PM,49.3,44.1,82,29.80,10.0,South,6.9,10.4,N/A,,Drizzle,190,2012-10-09 17:55:00
2:16 PM,49.1,44.6,84,29.78,10.0,South,6.9,-,N/A,Rain,Rain,180,2012-10-09 18:16:00
2:35 PM,49.1,45.0,86,29.78,10.0,South,5.8,-,N/A,Rain,Light Rain,180,2012-10-09 18:35:00
2:55 PM,49.5,44.2,82,29.77,10.0,South,6.9,-,N/A,,Light Drizzle,180,2012-10-09 18:55:00
3:15 PM,50.0,44.1,80,29.77,10.0,South,9.2,-,N/A,,Light Drizzle,180,2012-10-09 19:15:00
3:35 PM,50.9,43.7,76,29.75,10.0,South,6.9,-,N/A,,Overcast,170,2012-10-09 19:35:00
3:55 PM,51.6,43.3,73,29.75,10.0,South,9.2,-,N/A,,Overcast,170,2012-10-09 19:55:00
4:15 PM,52.2,43.2,71,29.73,10.0,SSE,5.8,-,N/A,,Overcast,150,2012-10-09 20:15:00
4:36 PM,52.3,43.5,72,29.72,10.0,SSE,6.9,-,N/A,,Overcast,160,2012-10-09 20:36:00
4:55 PM,52.5,41.7,67,29.71,10.0,SSE,6.9,-,N/A,,Overcast,160,2012-10-09 20:55:00
5:15 PM,52.2,42.3,69,29.69,10.0,SE,8.1,-,N/A,,Overcast,140,2012-10-09 21:15:00
5:35 PM,52.5,42.1,68,29.68,10.0,SE,5.8,-,N/A,,Overcast,140,2012-10-09 21:35:00
5:55 PM,52.7,44.4,73,29.66,10.0,SE,10.4,-,N/A,,Overcast,140,2012-10-09 21:55:00
6:16 PM,53.4,44.1,71,29.64,10.0,SSE,9.2,17.3,N/A,,Overcast,150,2012-10-09 22:16:00
6:35 PM,54.0,45.3,73,29.64,10.0,SSE,8.1,16.1,N/A,,Drizzle,160,2012-10-09 22:35:00
6:55 PM,54.1,45.1,72,29.64,10.0,South,10.4,-,N/A,,Drizzle,180,2012-10-09 22:55:00
7:16 PM,52.9,47.5,82,29.68,7.0,WSW,8.1,-,N/A,Rain,Rain,240,2012-10-09 23:16:00
7:35 PM,51.1,48.4,90,29.68,7.0,SW,4.6,-,N/A,Rain,Rain,230,2012-10-09 23:35:00
7:55 PM,50.4,48.6,94,29.68,7.0,SW,6.9,-,N/A,Rain,Rain,220,2012-10-09 23:55:00
8:16 PM,50.0,48.6,95,29.68,7.0,SW,5.8,-,N/A,Rain,Rain,220,2012-10-10 00:16:00
8:35 PM,50.0,48.4,94,29.68,10.0,WSW,9.2,19.6,N/A,Rain,Light Rain,240,2012-10-10 00:35:00
8:55 PM,49.1,47.5,94,29.68,10.0,WSW,6.9,16.1,N/A,Rain,Rain,250,2012-10-10 00:55:00
9:16 PM,48.6,47.5,96,29.68,7.0,WSW,10.4,-,N/A,Rain,Rain,250,2012-10-10 01:16:00
9:35 PM,48.2,47.3,97,29.68,5.0,WSW,8.1,-,N/A,Rain,Heavy Rain,240,2012-10-10 01:35:00
9:55 PM,48.2,46.8,95,29.68,7.0,SW,10.4,16.1,N/A,Rain,Light Rain,230,2012-10-10 01:55:00
10:15 PM,47.7,46.6,96,29.68,7.0,WSW,9.2,17.3,N/A,Rain,Rain,250,2012-10-10 02:15:00
10:35 PM,46.6,45.1,95,29.68,10.0,WSW,10.4,16.1,N/A,,Drizzle,240,2012-10-10 02:35:00
10:55 PM,46.4,44.6,93,29.68,10.0,WSW,8.1,-,N/A,,Drizzle,240,2012-10-10 02:55:00
11:15 PM,45.7,43.9,93,29.68,10.0,West,6.9,-,N/A,,Drizzle,260,2012-10-10 03:15:00
11:35 PM,45.0,43.2,93,29.69,10.0,WNW,9.2,17.3,N/A,Rain,Light Rain,300,2012-10-10 03:35:00
11:55 PM,44.1,42.4,94,29.70,10.0,West,10.4,16.1,N/A,,Drizzle,280,2012-10-10 03:55:00